Regional Weather Roundup
Issued by NWS

Home | Current Version | Previous Version | Text Only | Print | Product List | Glossary On
Versions: 1 2 3 4 5 6 7 8 9 10 11 12 13 14 15 16 17 18 19 20 21 22 23 24 25 26 27 28 29 30 31 32 33 34 35 36 37 38 39 40 41 42 43 44 45 46 47 48 49 50
000
ASUS43 KLSX 261307
RWRMO

WEATHER SUMMARY FOR MISSOURI
NATIONAL WEATHER SERVICE SPRINGFIELD MO
700 AM CST SUN JAN 26 2020

NOTE: "FAIR" INDICATES FEW OR NO CLOUDS BELOW 12,000 FEET WITH NO
       SIGNIFICANT WEATHER AND/OR OBSTRUCTIONS TO VISIBILITY.
       CURRENT SKY AND/OR WEATHER CONDITIONS ARE NOT AVAILABLE FOR
       CHILLICOTHE AND FARMINGTON.

MOZ001>031-035>038-043-044-053-054-261400-
...NORTHERN AND WESTERN MISSOURI...

CITY           SKY/WX    TMP DP  RH WIND       PRES   REMARKS
KANSAS CTY INT PTCLDY    25  24  96 SE3       29.99S FOG
KANSAS C DTWN  MOCLDY    28  26  92 CALM      30.00R
LEE`S SUMMIT   FOG       26  23  88 CALM      29.99S VSB 1/2
ST JOSEPH      CLOUDY    32  25  75 CALM      30.00S HAZE
CHILLICOTHE      N/A     22  21  96 CALM      30.02R
KIRKSVILLE     CLOUDY    23  22  96 CALM      29.98S FOG

$$
MOZ066>068-077>081-088>096-101>105-261400-
...SOUTHWEST MISSOURI...

CITY           SKY/WX    TMP DP  RH WIND       PRES   REMARKS
SPRINGFIELD    MOCLDY    35  31  85 S6        29.96S
JOPLIN         CLEAR     31  30  96 CALM      29.99R
BRANSON        PTCLDY    37  37 100 CALM      29.99R

$$
MOZ032>034-039>042-045>050-055>058-069>072-261400-
...CENTRAL MISSOURI...

CITY           SKY/WX    TMP DP  RH WIND       PRES   REMARKS
COLUMBIA       CLEAR     26  24  92 CALM      30.00R
JEFFERSON CITY CLEAR     27  24  89 CALM      30.01F
ROLLA          PTCLDY    29  27  92 E3        29.97F
SEDALIA        FOG       23  22  96 N5        30.01R VSB 1/4 WCI  17
WHITEMAN AFB   PTCLDY    24  24 100 CALM      29.96R FOG
WARRENSBURG      N/A    N/A N/A N/A MISG        N/A
OSAGE BEACH    CLOUDY    30  27  88 N3        29.99S

$$
MOZ051-052-059>065-261400-
...EAST CENTRAL MISSOURI...

CITY           SKY/WX    TMP DP  RH WIND       PRES   REMARKS
ST LOUIS INTL  PTCLDY    27  23  85 CALM      30.02S
SPIRIT OF STL  CLEAR     25  24  96 CALM      30.03R FOG
ST CHARLES     CLEAR     27  22  81 CALM      30.02S HAZE

$$
MOZ072>076-082>087-097>100-106>115-261400-
...SOUTH CENTRAL AND SOUTHEAST MISSOURI...

CITY           SKY/WX    TMP DP  RH WIND       PRES   REMARKS
CAPE GIRARDEAU CLOUDY    34  32  92 CALM      30.03R FOG
FARMINGTON     PTCLDY    29  28  96 CALM      30.01R
POPLAR BLUFF   FAIR      37  35  92 CALM      30.03R
WEST PLAINS    CLOUDY    40  33  76 SW5       29.99R

$$



USA.gov is the U.S. government's official web portal to all federal, state and local government web resources and services.